DLH918 EDDF-EGLL

Flight info

Callsign DLH918
Flight time 1h 13m
Altitude 36000
Route OBOKA2E/07C OBOKA Z29 TORNU DCT ABNED L980 LOGAN
Aircraft A320/M-SDE2E3FGIJ1LORWXYZ/HB1

Departure

Time 2026-05-07 19:33
Airport Frankfurt Main Airport (EDDF)

Arrival

Time 2026-05-07 20:47
Airport London Heathrow Airport (EGLL)
Time Latitude Longitude Altitude Speed Heading
2026-05-07 19:00 50.04403 8.56222 362 ft 0 kts 159°
2026-05-07 19:24 50.04420 8.56212 361 ft 3 kts 163°
2026-05-07 19:24 50.04440 8.56204 361 ft 3 kts 171°
2026-05-07 19:25 50.04459 8.56202 362 ft 3 kts 193°
2026-05-07 19:25 50.04475 8.56213 363 ft 3 kts 246°
2026-05-07 19:25 50.04476 8.56214 363 ft 0 kts 250°
2026-05-07 19:27 50.04470 8.56190 358 ft 2 kts 250°
2026-05-07 19:28 50.04458 8.56140 357 ft 10 kts 250°
2026-05-07 19:28 50.04432 8.56049 359 ft 8 kts 232°
2026-05-07 19:28 50.04386 8.56033 356 ft 6 kts 172°
2026-05-07 19:28 50.04337 8.56059 361 ft 10 kts 159°
2026-05-07 19:29 50.04284 8.56170 355 ft 15 kts 120°
2026-05-07 19:29 50.04190 8.56237 358 ft 15 kts 159°
2026-05-07 19:29 50.04116 8.56228 360 ft 8 kts 254°
2026-05-07 19:29 50.04096 8.56152 357 ft 7 kts 248°
2026-05-07 19:30 50.04075 8.56065 357 ft 12 kts 250°
2026-05-07 19:30 50.04035 8.55904 355 ft 20 kts 249°
2026-05-07 19:30 50.03989 8.55675 352 ft 23 kts 256°
2026-05-07 19:30 50.03927 8.55442 351 ft 24 kts 250°
2026-05-07 19:31 50.03868 8.55193 351 ft 23 kts 250°
2026-05-07 19:31 50.03810 8.54945 350 ft 25 kts 250°
2026-05-07 19:31 50.03753 8.54739 349 ft 16 kts 225°
2026-05-07 19:31 50.03652 8.54733 348 ft 15 kts 157°
2026-05-07 19:32 50.03588 8.54815 345 ft 9 kts 65°
2026-05-07 19:32 50.03593 8.54832 353 ft 0 kts 73°
2026-05-07 19:32 50.03593 8.54835 353 ft 3 kts 73°
2026-05-07 19:32 50.03659 8.55124 344 ft 65 kts 69°
2026-05-07 19:33 50.03898 8.56109 359 ft 127 kts 69°
2026-05-07 19:33 50.04259 8.57624 518 ft 159 kts 69°
2026-05-07 19:33 50.04642 8.59240 1186 ft 160 kts 70°
2026-05-07 19:33 50.05054 8.60880 1839 ft 166 kts 63°
2026-05-07 19:34 50.05704 8.62452 2243 ft 184 kts 45°
2026-05-07 19:34 50.06858 8.63494 2575 ft 205 kts 12°
2026-05-07 19:34 50.07837 8.63566 2952 ft 212 kts 357°
2026-05-07 19:34 50.09301 8.63448 3709 ft 214 kts 357°
2026-05-07 19:35 50.10822 8.63342 4472 ft 224 kts 357°
2026-05-07 19:35 50.12438 8.63233 4905 ft 247 kts 357°
2026-05-07 19:35 50.14241 8.63115 5561 ft 261 kts 356°
2026-05-07 19:35 50.16080 8.62994 6436 ft 267 kts 356°
2026-05-07 19:36 50.17926 8.62873 7258 ft 272 kts 356°
2026-05-07 19:36 50.19848 8.62744 8126 ft 276 kts 356°
2026-05-07 19:36 50.21760 8.62613 8975 ft 280 kts 356°
2026-05-07 19:36 50.23724 8.62482 9847 ft 284 kts 356°
2026-05-07 19:37 50.25730 8.62350 10438 ft 298 kts 356°
2026-05-07 19:37 50.27881 8.62202 10750 ft 319 kts 355°
2026-05-07 19:37 50.30075 8.61521 11369 ft 326 kts 338°
2026-05-07 19:37 50.32044 8.59756 12099 ft 329 kts 319°
2026-05-07 19:38 50.33557 8.57056 12851 ft 332 kts 300°
2026-05-07 19:38 50.34466 8.53725 13617 ft 335 kts 288°
2026-05-07 19:38 50.35210 8.50254 14347 ft 338 kts 288°
2026-05-07 19:38 50.35961 8.46754 15031 ft 341 kts 288°
2026-05-07 19:39 50.36723 8.43214 15702 ft 345 kts 288°
2026-05-07 19:39 50.37381 8.39584 16370 ft 348 kts 279°
2026-05-07 19:39 50.37570 8.35802 17030 ft 351 kts 268°
2026-05-07 19:39 50.37239 8.32003 17683 ft 354 kts 256°
2026-05-07 19:40 50.36516 8.28291 18340 ft 358 kts 252°
2026-05-07 19:40 50.35765 8.24575 18919 ft 360 kts 252°
2026-05-07 19:40 50.35007 8.20811 19508 ft 363 kts 253°
2026-05-07 19:40 50.34248 8.17033 20093 ft 366 kts 253°
2026-05-07 19:41 50.33487 8.13224 20685 ft 368 kts 253°
2026-05-07 19:41 50.32717 8.09383 21270 ft 371 kts 252°
2026-05-07 19:41 50.31941 8.05536 21849 ft 373 kts 252°
2026-05-07 19:41 50.31155 8.01644 22429 ft 376 kts 252°
2026-05-07 19:42 50.30382 7.97717 23002 ft 379 kts 256°
2026-05-07 19:42 50.29971 7.93643 23569 ft 381 kts 266°
2026-05-07 19:42 50.30084 7.89501 24038 ft 385 kts 278°
2026-05-07 19:42 50.30734 7.85420 24497 ft 389 kts 289°
2026-05-07 19:43 50.31820 7.81523 24947 ft 392 kts 293°
2026-05-07 19:43 50.32955 7.77639 25386 ft 394 kts 293°
2026-05-07 19:43 50.34109 7.73726 25813 ft 397 kts 296°
2026-05-07 19:43 50.35575 7.70057 26232 ft 401 kts 306°
2026-05-07 19:44 50.37470 7.66839 26642 ft 405 kts 317°
2026-05-07 19:44 50.39756 7.64209 27043 ft 410 kts 328°
2026-05-07 19:44 50.42331 7.62253 27440 ft 413 kts 335°
2026-05-07 19:44 50.44977 7.60453 27837 ft 415 kts 335°
2026-05-07 19:45 50.47635 7.58634 28228 ft 418 kts 334°
2026-05-07 19:45 50.50297 7.56797 28600 ft 420 kts 334°
2026-05-07 19:45 50.52979 7.54937 28976 ft 422 kts 334°
2026-05-07 19:45 50.55652 7.52996 29345 ft 423 kts 330°
2026-05-07 19:46 50.58157 7.50568 29696 ft 424 kts 325°
2026-05-07 19:46 50.60521 7.48126 30028 ft 426 kts 325°
2026-05-07 19:46 50.63011 7.45564 30330 ft 428 kts 325°
2026-05-07 19:46 50.65510 7.43010 30613 ft 430 kts 325°
2026-05-07 19:47 50.68037 7.40433 30885 ft 432 kts 325°
2026-05-07 19:47 50.70554 7.37857 31147 ft 434 kts 324°
2026-05-07 19:47 50.72926 7.34910 31395 ft 434 kts 315°
2026-05-07 19:47 50.74949 7.31372 31667 ft 433 kts 305°
2026-05-07 19:48 50.76577 7.27394 32023 ft 431 kts 297°
2026-05-07 19:48 50.77945 7.23192 32374 ft 430 kts 296°
2026-05-07 19:48 50.79312 7.18990 32727 ft 429 kts 296°
2026-05-07 19:48 50.80674 7.14810 33087 ft 429 kts 296°
2026-05-07 19:49 50.82044 7.10608 33446 ft 428 kts 296°
2026-05-07 19:49 50.83404 7.06427 33791 ft 427 kts 296°
2026-05-07 19:49 50.84738 7.02301 34132 ft 427 kts 295°
2026-05-07 19:49 50.86086 6.98123 34407 ft 427 kts 295°
2026-05-07 19:50 50.87434 6.93942 34684 ft 426 kts 295°
2026-05-07 19:50 50.88782 6.89759 34941 ft 426 kts 295°
2026-05-07 19:50 50.90127 6.85578 35196 ft 426 kts 295°
2026-05-07 19:50 50.91473 6.81387 35421 ft 427 kts 295°
2026-05-07 19:51 50.92816 6.77191 35659 ft 427 kts 295°
2026-05-07 19:51 50.94159 6.72993 35889 ft 427 kts 295°
2026-05-07 19:51 50.95499 6.68795 36038 ft 427 kts 295°
2026-05-07 19:51 50.96832 6.64608 36084 ft 423 kts 295°
2026-05-07 19:52 50.99470 6.56302 36082 ft 420 kts 295°
2026-05-07 19:52 51.02099 6.48013 36087 ft 420 kts 295°
2026-05-07 19:53 51.04716 6.39716 36086 ft 420 kts 295°
2026-05-07 19:53 51.07332 6.31406 36083 ft 420 kts 295°
2026-05-07 19:54 51.09940 6.23088 36087 ft 420 kts 294°
2026-05-07 19:54 51.12539 6.14760 36088 ft 420 kts 294°
2026-05-07 19:55 51.14644 6.06151 36093 ft 417 kts 283°
2026-05-07 19:55 51.16085 5.97196 36088 ft 417 kts 283°
2026-05-07 19:56 51.17537 5.88250 36087 ft 417 kts 283°
2026-05-07 19:56 51.19355 5.79483 36087 ft 418 kts 291°
2026-05-07 19:57 51.21622 5.70934 36081 ft 418 kts 291°
2026-05-07 19:57 51.23880 5.62385 36079 ft 418 kts 291°
2026-05-07 19:58 51.26110 5.53872 36080 ft 418 kts 291°
2026-05-07 19:58 51.28346 5.45292 36077 ft 418 kts 291°
2026-05-07 19:59 51.30582 5.36703 36075 ft 418 kts 291°
2026-05-07 19:59 51.32812 5.28115 36089 ft 418 kts 290°
2026-05-07 20:00 51.35052 5.19451 36088 ft 419 kts 290°
2026-05-07 20:00 51.37257 5.10897 36090 ft 419 kts 290°
2026-05-07 20:01 51.39477 5.02259 36094 ft 419 kts 290°
2026-05-07 20:01 51.41686 4.93615 36085 ft 419 kts 290°
2026-05-07 20:02 51.43883 4.84978 36088 ft 419 kts 290°
2026-05-07 20:02 51.46075 4.76327 36084 ft 418 kts 290°
2026-05-07 20:03 51.48258 4.67686 36089 ft 418 kts 290°
2026-05-07 20:03 51.50432 4.59031 36078 ft 418 kts 290°
2026-05-07 20:04 51.52601 4.50362 36076 ft 418 kts 290°
2026-05-07 20:04 51.54766 4.41698 36082 ft 418 kts 290°
2026-05-07 20:05 51.56924 4.33005 36087 ft 418 kts 290°
2026-05-07 20:05 51.59079 4.24307 36088 ft 418 kts 290°
2026-05-07 20:06 51.61224 4.15615 36080 ft 418 kts 290°
2026-05-07 20:06 51.63367 4.06903 36085 ft 418 kts 290°
2026-05-07 20:07 51.65493 3.98257 36082 ft 418 kts 289°
2026-05-07 20:07 51.67614 3.89542 36082 ft 418 kts 289°
2026-05-07 20:08 51.69729 3.80815 36082 ft 418 kts 289°
2026-05-07 20:08 51.71836 3.72101 36082 ft 417 kts 289°
2026-05-07 20:09 51.73944 3.63368 36080 ft 417 kts 289°
2026-05-07 20:10 51.77081 3.50275 36081 ft 417 kts 289°
2026-05-07 20:10 51.79168 3.41535 36083 ft 417 kts 289°
2026-05-07 20:11 51.81239 3.32792 36093 ft 417 kts 289°
2026-05-07 20:11 51.83301 3.24045 36096 ft 417 kts 289°
2026-05-07 20:12 51.84570 3.14989 36093 ft 413 kts 271°
2026-05-07 20:12 51.84190 3.05765 36091 ft 411 kts 263°
2026-05-07 20:13 51.83584 2.96571 35882 ft 411 kts 263°
2026-05-07 20:13 51.83279 2.91976 35640 ft 411 kts 263°
2026-05-07 20:13 51.82977 2.87400 35393 ft 409 kts 263°
2026-05-07 20:13 51.82673 2.82841 35146 ft 406 kts 263°
2026-05-07 20:14 51.82369 2.78312 34910 ft 404 kts 263°
2026-05-07 20:14 51.82116 2.73816 34662 ft 401 kts 270°
2026-05-07 20:14 51.82542 2.69389 34425 ft 400 kts 288°
2026-05-07 20:14 51.83589 2.65234 34091 ft 398 kts 291°
2026-05-07 20:15 51.84714 2.61158 33598 ft 394 kts 292°
2026-05-07 20:15 51.85832 2.57136 33097 ft 391 kts 292°
2026-05-07 20:15 51.86941 2.53144 32603 ft 387 kts 292°
2026-05-07 20:15 51.88040 2.49188 32179 ft 383 kts 292°
2026-05-07 20:16 51.89129 2.45262 31946 ft 382 kts 292°
2026-05-07 20:16 51.90216 2.41340 31461 ft 379 kts 292°
2026-05-07 20:16 51.91290 2.37460 31002 ft 376 kts 292°
2026-05-07 20:16 51.92358 2.33605 30555 ft 373 kts 292°
2026-05-07 20:17 51.93415 2.29786 30098 ft 371 kts 292°
2026-05-07 20:17 51.94464 2.25989 29595 ft 368 kts 292°
2026-05-07 20:17 51.95505 2.22218 29095 ft 365 kts 292°
2026-05-07 20:17 51.96538 2.18469 28610 ft 363 kts 292°
2026-05-07 20:18 51.97564 2.14745 28133 ft 360 kts 292°
2026-05-07 20:18 51.98577 2.11051 27662 ft 358 kts 291°
2026-05-07 20:18 51.99237 2.07209 27285 ft 351 kts 274°
2026-05-07 20:18 51.99128 2.03277 27022 ft 350 kts 257°
2026-05-07 20:19 51.98258 1.99614 26760 ft 349 kts 239°
2026-05-07 20:19 51.96726 1.96569 26504 ft 350 kts 226°
2026-05-07 20:19 51.95004 1.93775 26240 ft 350 kts 226°
2026-05-07 20:19 51.93280 1.90996 25988 ft 349 kts 226°
2026-05-07 20:20 51.92139 1.89161 25823 ft 348 kts 226°
2026-05-07 20:20 51.90428 1.86407 25569 ft 347 kts 226°
2026-05-07 20:20 51.88719 1.83652 25324 ft 346 kts 226°
2026-05-07 20:20 51.87017 1.80904 25131 ft 345 kts 226°
2026-05-07 20:21 51.85325 1.78170 25102 ft 344 kts 226°
2026-05-07 20:21 51.83632 1.75439 25103 ft 344 kts 226°
2026-05-07 20:21 51.81933 1.72705 25106 ft 345 kts 226°
2026-05-07 20:21 51.80230 1.69972 25096 ft 345 kts 226°
2026-05-07 20:22 51.78528 1.67246 25101 ft 345 kts 226°
2026-05-07 20:22 51.76865 1.64469 25098 ft 344 kts 232°
2026-05-07 20:22 51.75546 1.61269 25083 ft 342 kts 244°
2026-05-07 20:22 51.74667 1.57703 24759 ft 345 kts 255°
2026-05-07 20:23 51.74276 1.53853 24142 ft 349 kts 264°
2026-05-07 20:23 51.74051 1.49954 23605 ft 349 kts 264°
2026-05-07 20:23 51.73812 1.46060 23027 ft 349 kts 263°
2026-05-07 20:23 51.73560 1.42182 22506 ft 347 kts 263°
2026-05-07 20:24 51.73305 1.38320 21983 ft 346 kts 263°
2026-05-07 20:24 51.73049 1.34465 21462 ft 345 kts 263°
2026-05-07 20:24 51.72795 1.30621 20947 ft 344 kts 263°
2026-05-07 20:24 51.72542 1.26784 20430 ft 344 kts 263°
2026-05-07 20:25 51.72286 1.22949 19913 ft 344 kts 263°
2026-05-07 20:25 51.72028 1.19113 19394 ft 344 kts 263°
2026-05-07 20:25 51.71770 1.15271 18884 ft 345 kts 263°
2026-05-07 20:25 51.71513 1.11447 18405 ft 344 kts 263°
2026-05-07 20:26 51.71255 1.07637 18017 ft 340 kts 263°
2026-05-07 20:26 51.70997 1.03877 17559 ft 337 kts 263°
2026-05-07 20:26 51.70738 1.00119 17060 ft 334 kts 263°
2026-05-07 20:26 51.70484 0.96407 16388 ft 332 kts 262°
2026-05-07 20:27 51.70233 0.92716 15806 ft 329 kts 262°
2026-05-07 20:27 51.69985 0.89096 15375 ft 321 kts 262°
2026-05-07 20:27 51.69740 0.85566 14945 ft 314 kts 262°
2026-05-07 20:27 51.69495 0.82095 14526 ft 311 kts 262°
2026-05-07 20:28 51.69248 0.78627 14108 ft 312 kts 262°
2026-05-07 20:28 51.69000 0.75156 13657 ft 312 kts 262°
2026-05-07 20:28 51.68752 0.71688 13225 ft 311 kts 262°
2026-05-07 20:28 51.68502 0.68224 12802 ft 310 kts 262°
2026-05-07 20:29 51.68255 0.64782 12379 ft 309 kts 262°
2026-05-07 20:29 51.68011 0.61355 11970 ft 307 kts 262°
2026-05-07 20:29 51.67766 0.57940 11546 ft 306 kts 262°
2026-05-07 20:29 51.67521 0.54547 11133 ft 305 kts 262°
2026-05-07 20:30 51.67276 0.51162 10721 ft 303 kts 262°
2026-05-07 20:30 51.67029 0.47794 10320 ft 302 kts 262°
2026-05-07 20:30 51.66792 0.44539 10177 ft 291 kts 262°
2026-05-07 20:30 51.66558 0.41329 9837 ft 287 kts 262°
2026-05-07 20:31 51.66325 0.38146 9434 ft 286 kts 262°
2026-05-07 20:31 51.66089 0.34976 9029 ft 284 kts 262°
2026-05-07 20:31 51.65853 0.31835 8611 ft 282 kts 262°
2026-05-07 20:31 51.65620 0.28715 8205 ft 280 kts 262°
2026-05-07 20:32 51.65389 0.25640 8071 ft 275 kts 262°
2026-05-07 20:32 51.65157 0.22585 8083 ft 275 kts 262°
2026-05-07 20:32 51.64990 0.19511 8084 ft 276 kts 265°
2026-05-07 20:32 51.64886 0.16431 8085 ft 276 kts 266°
2026-05-07 20:33 51.64789 0.13351 8083 ft 276 kts 266°
2026-05-07 20:33 51.64691 0.10264 8085 ft 275 kts 266°
2026-05-07 20:33 51.64593 0.07185 8084 ft 275 kts 266°
2026-05-07 20:33 51.64496 0.04110 8084 ft 275 kts 266°
2026-05-07 20:34 51.64398 0.01031 8081 ft 275 kts 266°
2026-05-07 20:34 51.64299 -0.02038 8081 ft 275 kts 266°
2026-05-07 20:34 51.64201 -0.05108 8081 ft 275 kts 266°
2026-05-07 20:34 51.64101 -0.08183 8058 ft 275 kts 266°
2026-05-07 20:35 51.64000 -0.11251 8059 ft 274 kts 266°
2026-05-07 20:35 51.63896 -0.14319 8059 ft 274 kts 266°
2026-05-07 20:35 51.63790 -0.17384 8057 ft 274 kts 266°
2026-05-07 20:35 51.63686 -0.20447 8057 ft 274 kts 266°
2026-05-07 20:36 51.63580 -0.23506 8083 ft 274 kts 266°
2026-05-07 20:36 51.63474 -0.26570 8084 ft 273 kts 266°
2026-05-07 20:36 51.63365 -0.29609 7753 ft 271 kts 266°
2026-05-07 20:36 51.63255 -0.32628 7321 ft 270 kts 266°
2026-05-07 20:37 51.63142 -0.35635 7083 ft 270 kts 266°
2026-05-07 20:37 51.63027 -0.38660 7080 ft 271 kts 266°
2026-05-07 20:37 51.62910 -0.41697 7082 ft 272 kts 266°
2026-05-07 20:37 51.62791 -0.44727 7085 ft 271 kts 266°
2026-05-07 20:38 51.62673 -0.47757 7084 ft 271 kts 266°
2026-05-07 20:38 51.62554 -0.50767 6841 ft 269 kts 266°
2026-05-07 20:38 51.62435 -0.53767 6397 ft 269 kts 266°
2026-05-07 20:38 51.62315 -0.56766 5936 ft 268 kts 266°
2026-05-07 20:39 51.62065 -0.59733 5480 ft 267 kts 255°
2026-05-07 20:39 51.61525 -0.62593 5025 ft 267 kts 251°
2026-05-07 20:39 51.60826 -0.65343 4582 ft 266 kts 243°
2026-05-07 20:39 51.59979 -0.67978 4145 ft 264 kts 241°
2026-05-07 20:40 51.59123 -0.70580 3995 ft 262 kts 241°
2026-05-07 20:40 51.58266 -0.73179 4000 ft 264 kts 241°
2026-05-07 20:40 51.57401 -0.75773 4000 ft 264 kts 239°
2026-05-07 20:40 51.56195 -0.77903 3983 ft 252 kts 211°
2026-05-07 20:41 51.54620 -0.78752 3985 ft 232 kts 185°
2026-05-07 20:41 51.53024 -0.78938 3988 ft 227 kts 181°
2026-05-07 20:41 51.51493 -0.79041 3945 ft 215 kts 181°
2026-05-07 20:41 51.50042 -0.79070 3848 ft 202 kts 171°
2026-05-07 20:42 51.48800 -0.78285 3703 ft 187 kts 146°
2026-05-07 20:42 51.47889 -0.76907 3433 ft 183 kts 120°
2026-05-07 20:42 51.47609 -0.74968 3277 ft 181 kts 90°
2026-05-07 20:42 51.47624 -0.72993 3111 ft 173 kts 90°
2026-05-07 20:43 51.47635 -0.71097 2902 ft 168 kts 90°
2026-05-07 20:43 51.47646 -0.69248 2685 ft 165 kts 90°
2026-05-07 20:43 51.47656 -0.67417 2466 ft 163 kts 91°
2026-05-07 20:43 51.47666 -0.65599 2246 ft 163 kts 91°
2026-05-07 20:44 51.47676 -0.63780 2032 ft 163 kts 91°
2026-05-07 20:44 51.47685 -0.61969 1805 ft 162 kts 91°
2026-05-07 20:44 51.47695 -0.60166 1613 ft 162 kts 91°
2026-05-07 20:44 51.47704 -0.58363 1366 ft 161 kts 91°
2026-05-07 20:45 51.47712 -0.56646 1142 ft 148 kts 91°
2026-05-07 20:45 51.47720 -0.55042 941 ft 141 kts 91°
2026-05-07 20:45 51.47727 -0.53489 745 ft 137 kts 91°
2026-05-07 20:45 51.47734 -0.51967 564 ft 135 kts 91°
2026-05-07 20:46 51.47740 -0.50471 376 ft 133 kts 91°
2026-05-07 20:46 51.47746 -0.48989 196 ft 132 kts 91°
2026-05-07 20:46 51.47754 -0.47563 88 ft 118 kts 90°
2026-05-07 20:46 51.47755 -0.46600 93 ft 61 kts 90°
2026-05-07 20:47 51.47756 -0.46079 90 ft 35 kts 89°
2026-05-07 20:47 51.47756 -0.45699 87 ft 34 kts 91°
2026-05-07 20:47 51.47699 -0.45479 90 ft 21 kts 163°
2026-05-07 20:47 51.47628 -0.45468 87 ft 0 kts 179°
2026-05-07 20:48 51.47609 -0.45468 87 ft 7 kts 179°
2026-05-07 20:48 51.47553 -0.45467 87 ft 7 kts 180°
2026-05-07 20:48 51.47516 -0.45432 88 ft 6 kts 123°
2026-05-07 20:49 51.47508 -0.45350 89 ft 11 kts 89°
2026-05-07 20:49 51.47508 -0.45219 88 ft 13 kts 91°
2026-05-07 20:49 51.47507 -0.45062 87 ft 15 kts 90°
2026-05-07 20:49 51.47508 -0.44877 88 ft 18 kts 89°
2026-05-07 20:50 51.47510 -0.44705 91 ft 16 kts 89°
2026-05-07 20:50 51.47485 -0.44578 91 ft 13 kts 145°
2026-05-07 20:50 51.47394 -0.44562 87 ft 14 kts 182°
2026-05-07 20:50 51.47288 -0.44563 88 ft 16 kts 180°
2026-05-07 20:51 51.47175 -0.44561 89 ft 15 kts 179°
2026-05-07 20:51 51.47067 -0.44559 87 ft 14 kts 180°
2026-05-07 20:51 51.46995 -0.44581 89 ft 5 kts 268°
2026-05-07 20:51 51.46997 -0.44638 87 ft 5 kts 272°
2026-05-07 20:52 51.46996 -0.44680 87 ft 2 kts 270°
2026-05-07 20:52 51.46996 -0.44682 87 ft 0 kts 270°